Satellite: ISS
Catalog number: 25544
Epoch time:      08267.50681949
Element set:     311
Inclination:      051.6420 deg
RA of node:       232.1566 deg
Eccentricity:    0.0006907
Arg of perigee:   138.2052 deg
Mean anomaly:     325.5286 deg
Mean motion:   15.72162260 rev/day
Decay rate:      7.473e-05 rev/day^2
Epoch rev:           56400
Checksum:              283

Satellite: CO-58
Catalog number: 28895
Epoch time:      08266.25383114
Element set:    0127
Inclination:      098.0831 deg
RA of node:       157.9074 deg
Eccentricity:    0.0019010
Arg of perigee:   105.0170 deg
Mean anomaly:     255.3121 deg
Mean motion:   14.59697647 rev/day
Decay rate:        7.1e-07 rev/day^2
Epoch rev:           15464
Checksum:              307

Satellite: FALCON
Catalog number: 30776
Epoch time:      08266.49043882
Element set:     402
Inclination:      035.4348 deg
RA of node:       283.3443 deg
Eccentricity:    0.0000217
Arg of perigee:   158.8793 deg
Mean anomaly:     201.1932 deg
Mean motion:   15.03055626 rev/day
Decay rate:       3.15e-06 rev/day^2
Epoch rev:            8479
Checksum:              291

Satellite: MAST
Catalog number: 31126
Epoch time:      08267.61827084
Element set:     423
Inclination:      098.0296 deg
RA of node:       328.0692 deg
Eccentricity:    0.0095079
Arg of perigee:   027.6290 deg
Mean anomaly:     332.9928 deg
Mean motion:   14.53445850 rev/day
Decay rate:       -4.9e-07 rev/day^2
Epoch rev:            7631
Checksum:              317

Satellite: CAPE1
Catalog number: 31130
Epoch time:      08266.84077540
Element set:    0419
Inclination:      098.0315 deg
RA of node:       326.1111 deg
Eccentricity:    0.0103488
Arg of perigee:   033.6052 deg
Mean anomaly:     327.1635 deg
Mean motion:   14.51991796 rev/day
Decay rate:      -1.29e-06 rev/day^2
Epoch rev:           07589
Checksum:              294

Satellite: COMPASS
Catalog number: 32787
Epoch time:      08266.64969304
Element set:    0172
Inclination:      097.9785 deg
RA of node:       326.2162 deg
Eccentricity:    0.0015971
Arg of perigee:   177.4556 deg
Mean anomaly:     182.6740 deg
Mean motion:   14.81462651 rev/day
Decay rate:        3.8e-07 rev/day^2
Epoch rev:           02183
Checksum:              326

Satellite: AAUSAT2
Catalog number: 32788
Epoch time:      08266.84144509
Element set:    0157
Inclination:      097.9800 deg
RA of node:       326.4262 deg
Eccentricity:    0.0015664
Arg of perigee:   176.8103 deg
Mean anomaly:     183.3167 deg
Mean motion:   14.81573070 rev/day
Decay rate:      -1.39e-06 rev/day^2
Epoch rev:           02186
Checksum:              311

Satellite: DO-64
Catalog number: 32789
Epoch time:      08266.92061082
Element set:    0171
Inclination:      097.9831 deg
RA of node:       326.5403 deg
Eccentricity:    0.0015848
Arg of perigee:   175.9931 deg
Mean anomaly:     184.1414 deg
Mean motion:   14.81476528 rev/day
Decay rate:       1.68e-06 rev/day^2
Epoch rev:           02187
Checksum:              331

Satellite: CO-66
Catalog number: 32791
Epoch time:      08266.66381345
Element set:    0157
Inclination:      097.9822 deg
RA of node:       326.2494 deg
Eccentricity:    0.0016203
Arg of perigee:   175.2576 deg
Mean anomaly:     184.8791 deg
Mean motion:   14.81316303 rev/day
Decay rate:       1.51e-06 rev/day^2
Epoch rev:           02180
Checksum:              313

Satellite: RS-30
Catalog number: 32953
Epoch time:      08266.56128479
Element set:    0116
Inclination:      082.4972 deg
RA of node:       063.0255 deg
Eccentricity:    0.0019615
Arg of perigee:   044.9093 deg
Mean anomaly:     315.3577 deg
Mean motion:   12.42997623 rev/day
Decay rate:        1.0e-07 rev/day^2
Epoch rev:           01514
Checksum:              300

/EX



_______________________________________________
Via the Keps mailing list courtesy of AMSAT-NA
http://amsat.org/mailman/listinfo/keps

--- ViaMAIL!/WC v1.60d
 * Origin: Chowdanet (401-724-4410) telnet://chowdanet.com  (1:323/120)